Time,TemperatureF,DewpointF,PressureIn,WindDirection,WindDirectionDegrees,WindSpeedMPH,WindSpeedGustMPH,Humidity,HourlyPrecipIn,Conditions,Clouds,dailyrainin,SoftwareType,DateUTC
2013-10-19 03:51:00,38.4,37.3,0.00,East,85,0.0,0.4,96,0.00,,,0.00,WUHU216CR1000,2013-10-19 10:51:00,
2013-10-19 03:56:00,38.4,37.3,0.00,East,85,0.0,0.4,96,0.00,,,0.00,WUHU216CR1000,2013-10-19 10:56:00,
2013-10-19 04:01:00,37.8,36.6,0.00,East,85,0.3,0.9,96,0.00,,,0.00,WUHU216CR1000,2013-10-19 11:01:00,
2013-10-19 04:06:00,37.8,36.6,0.00,East,85,0.3,0.9,96,0.00,,,0.00,WUHU216CR1000,2013-10-19 11:06:00,
2013-10-19 04:11:00,37.8,36.6,0.00,East,85,0.3,0.9,96,0.00,,,0.00,WUHU216CR1000,2013-10-19 11:11:00,
2013-10-19 04:16:00,37.8,36.6,0.00,East,85,0.3,0.9,96,0.00,,,0.00,WUHU216CR1000,2013-10-19 11:16:00,
2013-10-19 04:21:00,37.3,36.2,0.00,North,0,0.0,0.9,96,0.00,,,0.00,WUHU216CR1000,2013-10-19 11:21:00,
2013-10-19 04:26:00,37.3,36.2,0.00,North,0,0.0,0.0,96,0.00,,,0.00,WUHU216CR1000,2013-10-19 11:26:00,
2013-10-19 04:31:00,37.5,36.4,0.00,North,0,0.0,0.0,96,0.00,,,0.00,WUHU216CR1000,2013-10-19 11:31:00,
2013-10-19 04:36:00,37.5,36.4,0.00,North,0,0.0,0.0,96,0.00,,,0.00,WUHU216CR1000,2013-10-19 11:36:00,
2013-10-19 04:41:00,37.5,36.4,0.00,North,0,0.0,0.0,96,0.00,,,0.00,WUHU216CR1000,2013-10-19 11:41:00,
2013-10-19 04:46:00,37.5,36.4,0.00,North,0,0.0,0.0,96,0.00,,,0.00,WUHU216CR1000,2013-10-19 11:46:00,
2013-10-19 04:51:00,36.7,35.7,0.00,North,0,0.0,0.0,96,0.00,,,0.00,WUHU216CR1000,2013-10-19 11:51:00,
2013-10-19 04:56:00,36.7,35.7,0.00,North,0,0.0,0.0,96,0.00,,,0.00,WUHU216CR1000,2013-10-19 11:56:00,
2013-10-19 05:01:00,36.1,35.0,0.00,NE,45,0.2,1.3,96,0.00,,,0.00,WUHU216CR1000,2013-10-19 12:01:00,
2013-10-19 05:06:00,36.1,35.0,0.00,NE,45,0.2,1.3,96,0.00,,,0.00,WUHU216CR1000,2013-10-19 12:06:00,
2013-10-19 05:11:00,36.1,35.0,0.00,NE,45,0.2,1.3,96,0.00,,,0.00,WUHU216CR1000,2013-10-19 12:11:00,
2013-10-19 05:16:00,36.7,35.7,0.00,NNE,24,0.2,1.3,96,0.00,,,0.00,WUHU216CR1000,2013-10-19 12:16:00,
2013-10-19 05:21:00,36.7,35.7,0.00,NNE,24,0.2,1.1,96,0.00,,,0.00,WUHU216CR1000,2013-10-19 12:21:00,
2013-10-19 05:26:00,36.7,35.7,0.00,NNE,24,0.2,1.1,96,0.00,,,0.00,WUHU216CR1000,2013-10-19 12:26:00,
2013-10-19 05:31:00,36.7,35.7,0.00,NNE,24,0.2,1.1,96,0.00,,,0.00,WUHU216CR1000,2013-10-19 12:31:00,
2013-10-19 05:36:00,37.0,36.0,0.00,North,0,0.0,1.1,96,0.00,,,0.00,WUHU216CR1000,2013-10-19 12:36:00,
2013-10-19 05:41:00,37.0,36.0,0.00,North,0,0.0,0.0,96,0.00,,,0.00,WUHU216CR1000,2013-10-19 12:41:00,
2013-10-19 05:46:00,37.0,36.0,0.00,North,0,0.0,0.0,96,0.00,,,0.00,WUHU216CR1000,2013-10-19 12:46:00,
2013-10-19 05:51:00,35.9,34.9,0.00,NNE,24,0.1,0.7,96,0.00,,,0.00,WUHU216CR1000,2013-10-19 12:51:00,
2013-10-19 05:56:00,35.9,34.9,0.00,NNE,24,0.1,0.7,96,0.00,,,0.00,WUHU216CR1000,2013-10-19 12:56:00,
2013-10-19 06:01:00,35.9,34.9,0.00,NNE,24,0.1,0.7,96,0.00,,,0.00,WUHU216CR1000,2013-10-19 13:01:00,
2013-10-19 06:06:00,36.4,35.5,0.00,North,0,0.0,0.7,96,0.00,,,0.00,WUHU216CR1000,2013-10-19 13:06:00,
2013-10-19 06:11:00,36.4,35.5,0.00,North,0,0.0,0.0,96,0.00,,,0.00,WUHU216CR1000,2013-10-19 13:11:00,
2013-10-19 06:16:00,35.9,35.0,0.00,North,0,0.0,0.0,97,0.00,,,0.00,WUHU216CR1000,2013-10-19 13:16:00,
2013-10-19 06:21:00,35.9,35.0,0.00,North,0,0.0,0.0,97,0.00,,,0.00,WUHU216CR1000,2013-10-19 13:21:00,
2013-10-19 06:26:00,35.9,35.0,0.00,North,0,0.0,0.0,97,0.00,,,0.00,WUHU216CR1000,2013-10-19 13:26:00,
2013-10-19 06:31:00,35.9,35.0,0.00,North,0,0.0,0.0,97,0.00,,,0.00,WUHU216CR1000,2013-10-19 13:31:00,
2013-10-19 06:36:00,35.9,35.0,0.00,North,0,0.0,0.0,97,0.00,,,0.00,WUHU216CR1000,2013-10-19 13:36:00,
2013-10-19 06:41:00,35.9,35.0,0.00,North,0,0.0,0.0,97,0.00,,,0.00,WUHU216CR1000,2013-10-19 13:41:00,
2013-10-19 06:46:00,35.9,35.0,0.00,North,0,0.0,0.0,97,0.00,,,0.00,WUHU216CR1000,2013-10-19 13:46:00,
2013-10-19 06:51:00,35.5,34.6,0.00,North,0,0.0,0.0,97,0.00,,,0.00,WUHU216CR1000,2013-10-19 13:51:00,
2013-10-19 06:56:00,35.5,34.6,0.00,North,0,0.0,0.0,97,0.00,,,0.00,WUHU216CR1000,2013-10-19 13:56:00,
2013-10-19 07:01:00,35.5,34.6,0.00,North,0,0.0,0.0,97,0.00,,,0.00,WUHU216CR1000,2013-10-19 14:01:00,
2013-10-19 07:06:00,35.3,34.4,0.00,North,0,0.0,0.0,97,0.00,,,0.00,WUHU216CR1000,2013-10-19 14:06:00,
2013-10-19 07:11:00,35.3,34.4,0.00,North,0,0.0,0.0,97,0.00,,,0.00,WUHU216CR1000,2013-10-19 14:11:00,
2013-10-19 07:16:00,35.3,34.4,0.00,North,0,0.0,0.0,97,0.00,,,0.00,WUHU216CR1000,2013-10-19 14:16:00,
2013-10-19 07:21:00,35.6,34.7,0.00,North,0,0.0,0.0,97,0.00,,,0.00,WUHU216CR1000,2013-10-19 14:21:00,
2013-10-19 07:26:00,35.6,34.7,0.00,North,0,0.0,0.0,97,0.00,,,0.00,WUHU216CR1000,2013-10-19 14:26:00,
2013-10-19 07:31:00,35.6,34.7,0.00,North,0,0.0,0.0,97,0.00,,,0.00,WUHU216CR1000,2013-10-19 14:31:00,
2013-10-19 07:36:00,35.3,34.4,0.00,NNE,24,0.0,1.1,97,0.00,,,0.00,WUHU216CR1000,2013-10-19 14:36:00,
2013-10-19 07:41:00,35.3,34.4,0.00,NNE,24,0.0,1.1,97,0.00,,,0.00,WUHU216CR1000,2013-10-19 14:41:00,
2013-10-19 07:46:00,35.3,34.4,0.00,NNE,24,0.0,1.1,97,0.00,,,0.00,WUHU216CR1000,2013-10-19 14:46:00,
2013-10-19 07:51:00,35.0,34.1,0.00,SW,233,0.1,1.3,97,0.00,,,0.00,WUHU216CR1000,2013-10-19 14:51:00,
2013-10-19 07:56:00,35.0,34.1,0.00,SW,233,0.1,1.3,97,0.00,,,0.00,WUHU216CR1000,2013-10-19 14:56:00,
2013-10-19 08:01:00,35.8,34.9,0.00,NE,39,0.2,1.3,97,0.00,,,0.00,WUHU216CR1000,2013-10-19 15:01:00,
2013-10-19 08:06:00,35.8,34.9,0.00,NE,39,0.2,1.3,97,0.00,,,0.00,WUHU216CR1000,2013-10-19 15:06:00,
2013-10-19 08:11:00,35.8,34.9,0.00,NE,39,0.2,1.3,97,0.00,,,0.00,WUHU216CR1000,2013-10-19 15:11:00,
2013-10-19 08:16:00,37.6,36.7,0.00,North,0,0.0,1.3,96,0.00,,,0.00,WUHU216CR1000,2013-10-19 15:16:00,
2013-10-19 08:21:00,37.6,36.7,0.00,North,0,0.0,0.0,96,0.00,,,0.00,WUHU216CR1000,2013-10-19 15:21:00,
2013-10-19 08:26:00,37.6,36.7,0.00,North,0,0.0,0.0,96,0.00,,,0.00,WUHU216CR1000,2013-10-19 15:26:00,
2013-10-19 08:31:00,40.6,39.4,0.00,North,0,0.0,0.0,95,0.00,,,0.00,WUHU216CR1000,2013-10-19 15:31:00,
2013-10-19 08:36:00,40.6,39.4,0.00,North,0,0.0,0.0,95,0.00,,,0.00,WUHU216CR1000,2013-10-19 15:36:00,
2013-10-19 08:41:00,40.6,39.4,0.00,North,0,0.0,0.0,95,0.00,,,0.00,WUHU216CR1000,2013-10-19 15:41:00,
2013-10-19 08:46:00,44.1,42.2,0.00,North,0,0.0,0.0,93,0.00,,,0.00,WUHU216CR1000,2013-10-19 15:46:00,
2013-10-19 08:51:00,44.1,42.2,0.00,North,0,0.0,0.0,93,0.00,,,0.00,WUHU216CR1000,2013-10-19 15:51:00,
2013-10-19 08:56:00,44.1,42.2,0.00,North,0,0.0,0.0,93,0.00,,,0.00,WUHU216CR1000,2013-10-19 15:56:00,
2013-10-19 09:01:00,45.8,41.5,0.00,SE,127,0.6,1.5,85,0.00,,,0.00,WUHU216CR1000,2013-10-19 16:01:00,
2013-10-19 09:06:00,45.8,41.5,0.00,SE,127,0.6,1.5,85,0.00,,,0.00,WUHU216CR1000,2013-10-19 16:06:00,
2013-10-19 09:11:00,45.8,41.5,0.00,SE,127,0.6,1.5,85,0.00,,,0.00,WUHU216CR1000,2013-10-19 16:11:00,
2013-10-19 09:16:00,48.6,41.9,0.00,SSW,203,0.9,3.7,78,0.00,,,0.00,WUHU216CR1000,2013-10-19 16:16:00,
2013-10-19 09:21:00,48.6,41.9,0.00,SSW,203,0.9,3.7,78,0.00,,,0.00,WUHU216CR1000,2013-10-19 16:21:00,
2013-10-19 09:26:00,48.6,41.9,0.00,SSW,203,0.9,3.7,78,0.00,,,0.00,WUHU216CR1000,2013-10-19 16:26:00,
2013-10-19 09:31:00,50.7,41.6,0.00,SSE,165,0.9,3.7,71,0.00,,,0.00,WUHU216CR1000,2013-10-19 16:31:00,
2013-10-19 09:36:00,50.7,41.6,0.00,SSE,165,0.9,2.4,71,0.00,,,0.00,WUHU216CR1000,2013-10-19 16:36:00,
2013-10-19 09:41:00,50.7,41.6,0.00,SSE,165,0.9,2.4,71,0.00,,,0.00,WUHU216CR1000,2013-10-19 16:41:00,
2013-10-19 09:46:00,53.8,40.9,0.00,SSE,155,0.8,2.4,62,0.00,,,0.00,WUHU216CR1000,2013-10-19 16:46:00,
2013-10-19 09:51:00,53.8,40.9,0.00,SSE,155,0.8,2.0,62,0.00,,,0.00,WUHU216CR1000,2013-10-19 16:51:00,
2013-10-19 09:56:00,53.8,40.9,0.00,SSE,155,0.8,2.0,62,0.00,,,0.00,WUHU216CR1000,2013-10-19 16:56:00,
2013-10-19 10:01:00,53.8,40.9,0.00,SSE,155,0.8,2.0,62,0.00,,,0.00,WUHU216CR1000,2013-10-19 17:01:00,
2013-10-19 10:06:00,56.3,40.7,0.00,NNW,329,0.7,2.2,56,0.00,,,0.00,WUHU216CR1000,2013-10-19 17:06:00,
2013-10-19 10:11:00,56.3,40.7,0.00,NNW,329,0.7,2.2,56,0.00,,,0.00,WUHU216CR1000,2013-10-19 17:11:00,
2013-10-19 10:16:00,58.8,40.2,0.00,South,178,1.0,3.1,50,0.00,,,0.00,WUHU216CR1000,2013-10-19 17:16:00,
2013-10-19 10:21:00,58.8,40.2,0.00,South,178,1.0,3.1,50,0.00,,,0.00,WUHU216CR1000,2013-10-19 17:21:00,
2013-10-19 10:26:00,58.8,40.2,0.00,South,178,1.0,3.1,50,0.00,,,0.00,WUHU216CR1000,2013-10-19 17:26:00,
2013-10-19 10:31:00,61.5,40.1,0.00,ESE,111,0.7,3.1,45,0.00,,,0.00,WUHU216CR1000,2013-10-19 17:31:00,
2013-10-19 10:36:00,61.5,40.1,0.00,ESE,111,0.7,2.6,45,0.00,,,0.00,WUHU216CR1000,2013-10-19 17:36:00,
2013-10-19 10:41:00,61.5,40.1,0.00,ESE,111,0.7,2.6,45,0.00,,,0.00,WUHU216CR1000,2013-10-19 17:41:00,
2013-10-19 10:46:00,63.3,40.5,0.00,East,95,1.6,3.3,43,0.00,,,0.00,WUHU216CR1000,2013-10-19 17:46:00,
2013-10-19 10:51:00,63.3,40.5,0.00,East,95,1.6,3.3,43,0.00,,,0.00,WUHU216CR1000,2013-10-19 17:51:00,
2013-10-19 10:56:00,63.3,40.5,0.00,East,95,1.6,3.3,43,0.00,,,0.00,WUHU216CR1000,2013-10-19 17:56:00,
2013-10-19 11:01:00,65.8,40.1,0.00,South,177,1.3,3.3,39,0.00,,,0.00,WUHU216CR1000,2013-10-19 18:01:00,
2013-10-19 11:06:00,65.8,40.1,0.00,South,177,1.3,3.3,39,0.00,,,0.00,WUHU216CR1000,2013-10-19 18:06:00,
2013-10-19 11:11:00,65.8,40.1,0.00,South,177,1.3,3.3,39,0.00,,,0.00,WUHU216CR1000,2013-10-19 18:11:00,
2013-10-19 11:16:00,67.7,40.0,0.00,SSW,194,1.2,3.3,36,0.00,,,0.00,WUHU216CR1000,2013-10-19 18:16:00,
2013-10-19 11:21:00,67.7,40.0,0.00,SSW,194,1.2,3.3,36,0.00,,,0.00,WUHU216CR1000,2013-10-19 18:21:00,
2013-10-19 11:26:00,67.7,40.0,0.00,SSW,194,1.2,3.3,36,0.00,,,0.00,WUHU216CR1000,2013-10-19 18:26:00,
2013-10-19 11:31:00,70.9,40.4,0.00,SE,135,1.2,3.3,33,0.00,,,0.00,WUHU216CR1000,2013-10-19 18:31:00,
2013-10-19 11:36:00,70.9,40.4,0.00,SE,135,1.2,2.9,33,0.00,,,0.00,WUHU216CR1000,2013-10-19 18:36:00,
2013-10-19 11:41:00,70.9,40.4,0.00,SE,135,1.2,2.9,33,0.00,,,0.00,WUHU216CR1000,2013-10-19 18:41:00,
2013-10-19 11:46:00,72.4,40.4,0.00,South,176,1.3,3.3,31,0.00,,,0.00,WUHU216CR1000,2013-10-19 18:46:00,
2013-10-19 11:51:00,72.4,40.4,0.00,South,176,1.3,3.3,31,0.00,,,0.00,WUHU216CR1000,2013-10-19 18:51:00,
2013-10-19 11:56:00,72.4,40.4,0.00,South,176,1.3,3.3,31,0.00,,,0.00,WUHU216CR1000,2013-10-19 18:56:00,
2013-10-19 12:01:00,74.6,39.9,0.00,ESE,108,1.1,3.7,29,0.00,,,0.00,WUHU216CR1000,2013-10-19 19:01:00,
2013-10-19 12:06:00,74.6,39.9,0.00,ESE,108,1.1,3.7,29,0.00,,,0.00,WUHU216CR1000,2013-10-19 19:06:00,
2013-10-19 12:11:00,74.6,39.9,0.00,ESE,108,1.1,3.7,29,0.00,,,0.00,WUHU216CR1000,2013-10-19 19:11:00,
2013-10-19 12:16:00,74.6,39.9,0.00,ESE,108,1.1,3.7,29,0.00,,,0.00,WUHU216CR1000,2013-10-19 19:16:00,
2013-10-19 12:21:00,76.5,41.0,0.00,South,182,1.6,4.4,28,0.00,,,0.00,WUHU216CR1000,2013-10-19 19:21:00,
2013-10-19 12:26:00,76.5,41.0,0.00,South,182,1.6,4.4,28,0.00,,,0.00,WUHU216CR1000,2013-10-19 19:26:00,
2013-10-19 12:31:00,77.7,40.5,0.00,SSW,193,1.3,4.4,26,0.00,,,0.00,WUHU216CR1000,2013-10-19 19:31:00,
2013-10-19 12:36:00,77.7,40.5,0.00,SSW,193,1.3,4.2,26,0.00,,,0.00,WUHU216CR1000,2013-10-19 19:36:00,
2013-10-19 12:41:00,77.7,40.5,0.00,SSW,193,1.3,4.2,26,0.00,,,0.00,WUHU216CR1000,2013-10-19 19:41:00,
2013-10-19 12:46:00,79.3,40.6,0.00,North,8,1.3,4.2,25,0.00,,,0.00,WUHU216CR1000,2013-10-19 19:46:00,
2013-10-19 12:51:00,79.3,40.6,0.00,North,8,1.3,4.2,25,0.00,,,0.00,WUHU216CR1000,2013-10-19 19:51:00,
2013-10-19 12:56:00,79.3,40.6,0.00,North,8,1.3,4.2,25,0.00,,,0.00,WUHU216CR1000,2013-10-19 19:56:00,
2013-10-19 13:01:00,81.9,39.2,0.00,SSE,158,1.1,4.2,22,0.00,,,0.00,WUHU216CR1000,2013-10-19 20:01:00,
2013-10-19 13:06:00,81.9,39.2,0.00,SSE,158,1.1,3.5,22,0.00,,,0.00,WUHU216CR1000,2013-10-19 20:06:00,
2013-10-19 13:11:00,81.9,39.2,0.00,SSE,158,1.1,3.5,22,0.00,,,0.00,WUHU216CR1000,2013-10-19 20:11:00,
2013-10-19 13:16:00,82.7,37.6,0.00,SSW,212,2.3,5.5,20,0.00,,,0.00,WUHU216CR1000,2013-10-19 20:16:00,
2013-10-19 13:21:00,82.7,37.6,0.00,SSW,212,2.3,5.5,20,0.00,,,0.00,WUHU216CR1000,2013-10-19 20:21:00,
2013-10-19 13:26:00,82.7,37.6,0.00,SSW,212,2.3,5.5,20,0.00,,,0.00,WUHU216CR1000,2013-10-19 20:26:00,
2013-10-19 13:31:00,83.2,35.3,0.00,SSE,155,3.1,6.1,18,0.00,,,0.00,WUHU216CR1000,2013-10-19 20:31:00,
2013-10-19 13:36:00,83.2,35.3,0.00,SSE,155,3.1,6.1,18,0.00,,,0.00,WUHU216CR1000,2013-10-19 20:36:00,
2013-10-19 13:41:00,83.2,35.3,0.00,SSE,155,3.1,6.1,18,0.00,,,0.00,WUHU216CR1000,2013-10-19 20:41:00,
2013-10-19 13:46:00,84.0,33.3,0.00,SSE,160,2.3,6.1,16,0.00,,,0.00,WUHU216CR1000,2013-10-19 20:46:00,
2013-10-19 13:51:00,84.0,33.3,0.00,SSE,160,2.3,5.5,16,0.00,,,0.00,WUHU216CR1000,2013-10-19 20:51:00,
2013-10-19 13:56:00,84.0,33.3,0.00,SSE,160,2.3,5.5,16,0.00,,,0.00,WUHU216CR1000,2013-10-19 20:56:00,
2013-10-19 14:01:00,85.0,32.8,0.00,SSE,164,2.6,6.4,15,0.00,,,0.00,WUHU216CR1000,2013-10-19 21:01:00,
2013-10-19 14:06:00,85.0,32.8,0.00,SSE,164,2.6,6.4,15,0.00,,,0.00,WUHU216CR1000,2013-10-19 21:06:00,
2013-10-19 14:11:00,85.0,32.8,0.00,SSE,164,2.6,6.4,15,0.00,,,0.00,WUHU216CR1000,2013-10-19 21:11:00,
2013-10-19 14:16:00,85.4,31.1,0.00,SSE,150,2.8,6.4,14,0.00,,,0.00,WUHU216CR1000,2013-10-19 21:16:00,
2013-10-19 14:21:00,85.4,31.1,0.00,SSE,150,2.8,6.1,14,0.00,,,0.00,WUHU216CR1000,2013-10-19 21:21:00,
2013-10-19 14:26:00,85.4,31.1,0.00,SSE,150,2.8,6.1,14,0.00,,,0.00,WUHU216CR1000,2013-10-19 21:26:00,
2013-10-19 14:31:00,87.2,31.5,0.00,SE,125,2.0,6.1,14,0.00,,,0.00,WUHU216CR1000,2013-10-19 21:31:00,
2013-10-19 14:36:00,87.2,31.5,0.00,SE,125,2.0,5.5,14,0.00,,,0.00,WUHU216CR1000,2013-10-19 21:36:00,
2013-10-19 14:41:00,87.2,31.5,0.00,SE,125,2.0,5.5,14,0.00,,,0.00,WUHU216CR1000,2013-10-19 21:41:00,
2013-10-19 14:46:00,87.1,31.3,0.00,SE,146,2.6,5.7,14,0.00,,,0.00,WUHU216CR1000,2013-10-19 21:46:00,
2013-10-19 14:51:00,87.1,31.3,0.00,SE,146,2.6,5.7,14,0.00,,,0.00,WUHU216CR1000,2013-10-19 21:51:00,
2013-10-19 14:56:00,87.1,31.3,0.00,SE,146,2.6,5.7,14,0.00,,,0.00,WUHU216CR1000,2013-10-19 21:56:00,
2013-10-19 15:01:00,88.0,32.1,0.00,East,96,1.9,5.7,14,0.00,,,0.00,WUHU216CR1000,2013-10-19 22:01:00,
2013-10-19 15:06:00,88.0,32.1,0.00,East,96,1.9,5.0,14,0.00,,,0.00,WUHU216CR1000,2013-10-19 22:06:00,
2013-10-19 15:11:00,88.0,32.1,0.00,East,96,1.9,5.0,14,0.00,,,0.00,WUHU216CR1000,2013-10-19 22:11:00,
2013-10-19 15:16:00,88.0,32.1,0.00,East,96,1.9,5.0,14,0.00,,,0.00,WUHU216CR1000,2013-10-19 22:16:00,
2013-10-19 15:21:00,87.8,32.6,0.00,South,185,2.3,5.0,14,0.00,,,0.00,WUHU216CR1000,2013-10-19 22:21:00,
2013-10-19 15:26:00,87.8,32.6,0.00,South,185,2.3,5.0,14,0.00,,,0.00,WUHU216CR1000,2013-10-19 22:26:00,
2013-10-19 15:31:00,87.5,29.5,0.00,South,181,1.7,5.3,12,0.00,,,0.00,WUHU216CR1000,2013-10-19 22:31:00,
2013-10-19 15:36:00,87.5,29.5,0.00,South,181,1.7,5.3,12,0.00,,,0.00,WUHU216CR1000,2013-10-19 22:36:00,
2013-10-19 15:41:00,87.5,29.5,0.00,South,181,1.7,5.3,12,0.00,,,0.00,WUHU216CR1000,2013-10-19 22:41:00,
2013-10-19 15:46:00,88.7,26.9,0.00,ESE,114,1.9,5.3,11,0.00,,,0.00,WUHU216CR1000,2013-10-19 22:46:00,
2013-10-19 15:51:00,88.7,26.9,0.00,ESE,114,1.9,4.4,11,0.00,,,0.00,WUHU216CR1000,2013-10-19 22:51:00,
2013-10-19 15:56:00,88.7,26.9,0.00,ESE,114,1.9,4.4,11,0.00,,,0.00,WUHU216CR1000,2013-10-19 22:56:00,
2013-10-19 16:01:00,87.3,27.9,0.00,SSE,162,2.4,6.4,12,0.00,,,0.00,WUHU216CR1000,2013-10-19 23:01:00,
2013-10-19 16:06:00,87.3,27.9,0.00,SSE,162,2.4,6.4,12,0.00,,,0.00,WUHU216CR1000,2013-10-19 23:06:00,
2013-10-19 16:11:00,87.3,27.9,0.00,SSE,162,2.4,6.4,12,0.00,,,0.00,WUHU216CR1000,2013-10-19 23:11:00,
2013-10-19 16:16:00,87.6,32.6,0.00,South,188,1.8,6.4,14,0.00,,,0.00,WUHU216CR1000,2013-10-19 23:16:00,
2013-10-19 16:21:00,87.6,32.6,0.00,South,188,1.8,5.9,14,0.00,,,0.00,WUHU216CR1000,2013-10-19 23:21:00,
2013-10-19 16:26:00,87.6,32.6,0.00,South,188,1.8,5.9,14,0.00,,,0.00,WUHU216CR1000,2013-10-19 23:26:00,
2013-10-19 16:31:00,84.9,41.2,0.00,WNW,291,4.6,10.8,22,0.00,,,0.00,WUHU216CR1000,2013-10-19 23:31:00,
2013-10-19 16:36:00,84.9,41.2,0.00,WNW,291,4.6,10.8,22,0.00,,,0.00,WUHU216CR1000,2013-10-19 23:36:00,
2013-10-19 16:41:00,84.9,41.2,0.00,WNW,291,4.6,10.8,22,0.00,,,0.00,WUHU216CR1000,2013-10-19 23:41:00,
2013-10-19 16:46:00,83.1,40.6,0.00,WNW,298,4.8,10.8,22,0.00,,,0.00,WUHU216CR1000,2013-10-19 23:46:00,
2013-10-19 16:51:00,83.1,40.6,0.00,WNW,298,4.8,9.9,22,0.00,,,0.00,WUHU216CR1000,2013-10-19 23:51:00,
2013-10-19 16:56:00,83.1,40.6,0.00,WNW,298,4.8,9.9,22,0.00,,,0.00,WUHU216CR1000,2013-10-19 23:56:00,
2013-10-19 17:01:00,82.0,39.8,0.00,WNW,289,4.7,9.9,22,0.00,,,0.00,WUHU216CR1000,2013-10-20 00:01:00,
2013-10-19 17:06:00,82.0,39.8,0.00,WNW,289,4.7,9.2,22,0.00,,,0.00,WUHU216CR1000,2013-10-20 00:06:00,
2013-10-19 17:11:00,82.0,39.8,0.00,WNW,289,4.7,9.2,22,0.00,,,0.00,WUHU216CR1000,2013-10-20 00:11:00,
2013-10-19 17:16:00,80.6,38.3,0.00,WNW,288,5.3,9.2,22,0.00,,,0.00,WUHU216CR1000,2013-10-20 00:16:00,
2013-10-19 17:21:00,80.6,38.3,0.00,WNW,288,5.3,9.2,22,0.00,,,0.00,WUHU216CR1000,2013-10-20 00:21:00,
2013-10-19 17:26:00,80.6,38.3,0.00,WNW,288,5.3,9.2,22,0.00,,,0.00,WUHU216CR1000,2013-10-20 00:26:00,
2013-10-19 17:31:00,79.3,37.5,0.00,WNW,283,4.8,9.9,22,0.00,,,0.00,WUHU216CR1000,2013-10-20 00:31:00,
2013-10-19 17:36:00,79.3,37.5,0.00,WNW,283,4.8,9.9,22,0.00,,,0.00,WUHU216CR1000,2013-10-20 00:36:00,
2013-10-19 17:41:00,79.3,37.5,0.00,WNW,283,4.8,9.9,22,0.00,,,0.00,WUHU216CR1000,2013-10-20 00:41:00,
2013-10-19 17:46:00,77.5,37.9,0.00,West,272,4.0,9.9,24,0.00,,,0.00,WUHU216CR1000,2013-10-20 00:46:00,
2013-10-19 17:51:00,77.5,37.9,0.00,West,272,4.0,7.5,24,0.00,,,0.00,WUHU216CR1000,2013-10-20 00:51:00,
2013-10-19 17:56:00,77.5,37.9,0.00,West,272,4.0,7.5,24,0.00,,,0.00,WUHU216CR1000,2013-10-20 00:56:00,
2013-10-19 18:01:00,77.5,37.9,0.00,West,272,4.0,7.5,24,0.00,,,0.00,WUHU216CR1000,2013-10-20 01:01:00,
2013-10-19 18:06:00,75.3,37.9,0.00,West,273,3.2,7.5,26,0.00,,,0.00,WUHU216CR1000,2013-10-20 01:06:00,
2013-10-19 18:11:00,75.3,37.9,0.00,West,273,3.2,6.6,26,0.00,,,0.00,WUHU216CR1000,2013-10-20 01:11:00,
2013-10-19 18:16:00,71.7,38.4,0.00,West,260,3.4,6.6,30,0.00,,,0.00,WUHU216CR1000,2013-10-20 01:16:00,
2013-10-19 18:21:00,71.7,38.4,0.00,West,260,3.4,4.8,30,0.00,,,0.00,WUHU216CR1000,2013-10-20 01:21:00,
2013-10-19 18:26:00,71.7,38.4,0.00,West,260,3.4,4.8,30,0.00,,,0.00,WUHU216CR1000,2013-10-20 01:26:00,
2013-10-19 18:31:00,68.8,38.2,0.00,West,261,4.2,5.9,33,0.00,,,0.00,WUHU216CR1000,2013-10-20 01:31:00,
2013-10-19 18:36:00,68.8,38.2,0.00,West,261,4.2,5.9,33,0.00,,,0.00,WUHU216CR1000,2013-10-20 01:36:00,
2013-10-19 18:41:00,68.8,38.2,0.00,West,261,4.2,5.9,33,0.00,,,0.00,WUHU216CR1000,2013-10-20 01:41:00,
2013-10-19 18:46:00,69.1,37.8,0.00,WSW,248,2.9,6.1,32,0.00,,,0.00,WUHU216CR1000,2013-10-20 01:46:00,
2013-10-19 18:51:00,69.1,37.8,0.00,WSW,248,2.9,6.1,32,0.00,,,0.00,WUHU216CR1000,2013-10-20 01:51:00,
2013-10-19 18:56:00,69.1,37.8,0.00,WSW,248,2.9,6.1,32,0.00,,,0.00,WUHU216CR1000,2013-10-20 01:56:00,
2013-10-19 19:01:00,65.0,40.1,0.00,WSW,238,2.0,6.1,40,0.00,,,0.00,WUHU216CR1000,2013-10-20 02:01:00,
2013-10-19 19:06:00,65.0,40.1,0.00,WSW,238,2.0,3.3,40,0.00,,,0.00,WUHU216CR1000,2013-10-20 02:06:00,
2013-10-19 19:11:00,65.0,40.1,0.00,WSW,238,2.0,3.3,40,0.00,,,0.00,WUHU216CR1000,2013-10-20 02:11:00,
2013-10-19 19:16:00,64.1,39.6,0.00,WSW,246,2.3,5.0,41,0.00,,,0.00,WUHU216CR1000,2013-10-20 02:16:00,
2013-10-19 19:21:00,64.1,39.6,0.00,WSW,246,2.3,5.0,41,0.00,,,0.00,WUHU216CR1000,2013-10-20 02:21:00,
2013-10-19 19:26:00,64.1,39.6,0.00,WSW,246,2.3,5.0,41,0.00,,,0.00,WUHU216CR1000,2013-10-20 02:26:00,
2013-10-19 19:31:00,64.0,39.7,0.00,SW,222,0.9,5.0,41,0.00,,,0.00,WUHU216CR1000,2013-10-20 02:31:00,
2013-10-19 19:36:00,64.0,39.7,0.00,SW,222,0.9,3.9,41,0.00,,,0.00,WUHU216CR1000,2013-10-20 02:36:00,
2013-10-19 19:41:00,64.0,39.7,0.00,SW,222,0.9,3.9,41,0.00,,,0.00,WUHU216CR1000,2013-10-20 02:41:00,
2013-10-19 19:46:00,62.4,40.3,0.00,SW,221,1.5,3.9,44,0.00,,,0.00,WUHU216CR1000,2013-10-20 02:46:00,
2013-10-19 19:51:00,62.4,40.3,0.00,SW,221,1.5,3.1,44,0.00,,,0.00,WUHU216CR1000,2013-10-20 02:51:00,
2013-10-19 19:56:00,62.4,40.3,0.00,SW,221,1.5,3.1,44,0.00,,,0.00,WUHU216CR1000,2013-10-20 02:56:00,
2013-10-19 20:01:00,58.8,41.2,0.00,SSW,200,2.6,4.4,52,0.00,,,0.00,WUHU216CR1000,2013-10-20 03:01:00,
2013-10-19 20:06:00,58.8,41.2,0.00,SSW,200,2.6,4.4,52,0.00,,,0.00,WUHU216CR1000,2013-10-20 03:06:00,
2013-10-19 20:11:00,58.8,41.2,0.00,SSW,200,2.6,4.4,52,0.00,,,0.00,WUHU216CR1000,2013-10-20 03:11:00,
2013-10-19 20:16:00,56.6,41.1,0.00,SSE,157,1.4,4.4,56,0.00,,,0.00,WUHU216CR1000,2013-10-20 03:16:00,
2013-10-19 20:21:00,56.6,41.1,0.00,SSE,157,1.4,3.7,56,0.00,,,0.00,WUHU216CR1000,2013-10-20 03:21:00,
2013-10-19 20:26:00,56.6,41.1,0.00,SSE,157,1.4,3.7,56,0.00,,,0.00,WUHU216CR1000,2013-10-20 03:26:00,
2013-10-19 20:31:00,56.1,41.0,0.00,East,96,0.6,3.7,57,0.00,,,0.00,WUHU216CR1000,2013-10-20 03:31:00,
2013-10-19 20:36:00,56.1,41.0,0.00,East,96,0.6,2.9,57,0.00,,,0.00,WUHU216CR1000,2013-10-20 03:36:00,
2013-10-19 20:41:00,56.1,41.0,0.00,East,96,0.6,2.9,57,0.00,,,0.00,WUHU216CR1000,2013-10-20 03:41:00,
2013-10-19 20:46:00,53.3,42.2,0.00,SSW,194,0.1,2.9,66,0.00,,,0.00,WUHU216CR1000,2013-10-20 03:46:00,
2013-10-19 20:51:00,53.3,42.2,0.00,SSW,194,0.1,1.3,66,0.00,,,0.00,WUHU216CR1000,2013-10-20 03:51:00,
2013-10-19 20:56:00,53.3,42.2,0.00,SSW,194,0.1,1.3,66,0.00,,,0.00,WUHU216CR1000,2013-10-20 03:56:00,
2013-10-19 21:01:00,53.3,42.2,0.00,SSW,194,0.1,1.3,66,0.00,,,0.00,WUHU216CR1000,2013-10-20 04:01:00,
2013-10-19 21:02:00,52.6,42.3,0.00,West,277,1.0,1.8,68,0.00,,,0.00,WUHU216CR1000,2013-10-20 04:02:00,
2013-10-19 21:07:00,52.6,42.3,0.00,West,277,1.0,1.8,68,0.00,,,0.00,WUHU216CR1000,2013-10-20 04:07:00,
2013-10-19 21:12:00,52.6,42.3,0.00,West,277,1.0,1.8,68,0.00,,,0.00,WUHU216CR1000,2013-10-20 04:12:00,
2013-10-19 21:17:00,50.4,42.0,0.00,WNW,295,0.0,1.8,73,0.00,,,0.00,WUHU216CR1000,2013-10-20 04:17:00,
2013-10-19 21:22:00,50.4,42.0,0.00,WNW,295,0.0,0.7,73,0.00,,,0.00,WUHU216CR1000,2013-10-20 04:22:00,
2013-10-19 21:27:00,50.4,42.0,0.00,WNW,295,0.0,0.7,73,0.00,,,0.00,WUHU216CR1000,2013-10-20 04:27:00,
2013-10-19 21:32:00,49.2,41.8,0.00,North,0,0.0,0.7,75,0.00,,,0.00,WUHU216CR1000,2013-10-20 04:32:00,
2013-10-19 21:37:00,49.2,41.8,0.00,North,0,0.0,0.0,75,0.00,,,0.00,WUHU216CR1000,2013-10-20 04:37:00,
2013-10-19 21:42:00,49.2,41.8,0.00,North,0,0.0,0.0,75,0.00,,,0.00,WUHU216CR1000,2013-10-20 04:42:00,
2013-10-19 21:47:00,48.4,42.1,0.00,NW,317,0.1,0.9,79,0.00,,,0.00,WUHU216CR1000,2013-10-20 04:47:00,
2013-10-19 21:52:00,48.4,42.1,0.00,NW,317,0.1,0.9,79,0.00,,,0.00,WUHU216CR1000,2013-10-20 04:52:00,
2013-10-19 21:57:00,48.4,42.1,0.00,NW,317,0.1,0.9,79,0.00,,,0.00,WUHU216CR1000,2013-10-20 04:57:00,
2013-10-19 22:02:00,48.5,42.2,0.00,NNE,20,0.4,1.3,79,0.00,,,0.00,WUHU216CR1000,2013-10-20 05:02:00,
2013-10-19 22:07:00,48.5,42.2,0.00,NNE,20,0.4,1.3,79,0.00,,,0.00,WUHU216CR1000,2013-10-20 05:07:00,
2013-10-19 22:12:00,48.5,42.2,0.00,NNE,20,0.4,1.3,79,0.00,,,0.00,WUHU216CR1000,2013-10-20 05:12:00,
2013-10-19 22:17:00,47.2,42.4,0.00,NNE,16,0.2,1.3,83,0.00,,,0.00,WUHU216CR1000,2013-10-20 05:17:00,
2013-10-19 22:22:00,47.2,42.4,0.00,NNE,16,0.2,0.9,83,0.00,,,0.00,WUHU216CR1000,2013-10-20 05:22:00,
2013-10-19 22:27:00,47.2,42.4,0.00,NNE,16,0.2,0.9,83,0.00,,,0.00,WUHU216CR1000,2013-10-20 05:27:00,
2013-10-19 22:32:00,46.2,41.2,0.00,ENE,70,0.1,1.5,83,0.00,,,0.00,WUHU216CR1000,2013-10-20 05:32:00,
2013-10-19 22:37:00,46.2,41.2,0.00,ENE,70,0.1,1.5,83,0.00,,,0.00,WUHU216CR1000,2013-10-20 05:37:00,
2013-10-19 22:42:00,46.2,41.2,0.00,ENE,70,0.1,1.5,83,0.00,,,0.00,WUHU216CR1000,2013-10-20 05:42:00,
2013-10-19 22:47:00,46.0,42.0,0.00,ENE,61,0.0,1.5,86,0.00,,,0.00,WUHU216CR1000,2013-10-20 05:47:00,
2013-10-19 22:52:00,46.0,42.0,0.00,ENE,61,0.0,0.7,86,0.00,,,0.00,WUHU216CR1000,2013-10-20 05:52:00,
2013-10-19 22:57:00,46.0,42.0,0.00,ENE,61,0.0,0.7,86,0.00,,,0.00,WUHU216CR1000,2013-10-20 05:57:00,
2013-10-19 23:02:00,45.2,41.9,0.00,SSE,160,0.1,1.3,88,0.00,,,0.00,WUHU216CR1000,2013-10-20 06:02:00,
2013-10-19 23:07:00,45.2,41.9,0.00,SSE,160,0.1,1.3,88,0.00,,,0.00,WUHU216CR1000,2013-10-20 06:07:00,
2013-10-19 23:12:00,45.2,41.9,0.00,SSE,160,0.1,1.3,88,0.00,,,0.00,WUHU216CR1000,2013-10-20 06:12:00,
2013-10-19 23:17:00,45.1,41.5,0.00,WSW,246,0.6,1.5,87,0.00,,,0.00,WUHU216CR1000,2013-10-20 06:17:00,
2013-10-19 23:22:00,45.1,41.5,0.00,WSW,246,0.6,1.5,87,0.00,,,0.00,WUHU216CR1000,2013-10-20 06:22:00,
2013-10-19 23:27:00,45.1,41.5,0.00,WSW,246,0.6,1.5,87,0.00,,,0.00,WUHU216CR1000,2013-10-20 06:27:00,
2013-10-19 23:32:00,44.3,40.5,0.00,SSW,209,0.0,1.5,87,0.00,,,0.00,WUHU216CR1000,2013-10-20 06:32:00,
2013-10-19 23:37:00,44.3,40.5,0.00,SSW,209,0.0,0.7,87,0.00,,,0.00,WUHU216CR1000,2013-10-20 06:37:00,
2013-10-19 23:42:00,44.3,40.5,0.00,SSW,209,0.0,0.7,87,0.00,,,0.00,WUHU216CR1000,2013-10-20 06:42:00,
2013-10-19 23:47:00,43.3,40.2,0.00,North,0,0.0,0.7,89,0.00,,,0.00,WUHU216CR1000,2013-10-20 06:47:00,
2013-10-19 23:52:00,43.3,40.2,0.00,North,0,0.0,0.0,89,0.00,,,0.00,WUHU216CR1000,2013-10-20 06:52:00,
2013-10-19 23:57:00,43.3,40.2,0.00,North,0,0.0,0.0,89,0.00,,,0.00,WUHU216CR1000,2013-10-20 06:57:00,